Flag for Austria Weather past 2 weeks in Wals-Siezenheim, Salzburg, Austria

Now
50 °F

Fog.


Feels Like: 50 °F
Forecast: 52 / 73 °F
Wind: 1 mph from North

Location: Salzburg-Flughafen

Current Time: Sep 16, 2014 at 7:18:52 AM

Latest Report: Sep 16, 2014 at 6:50 AM


Visibility: 0 mi

Pressure: 30.04 "Hg

Humidity: 100%

Dew point: 50 °F

Location of Wals-SiezenheimLocation

Historic Weather in Wals-Siezenheim — Graph

°F

Wals-Siezenheim temperature yesterday

Maximum temperature yesterday: 68 °F (at 2:50 PM)
Minimum temperature yesterday: 46 °F (at 6:50 AM)
Average temperature yesterday: 58 °F

Past Weeks' High & Low Weather Summary

 TemperatureHumidityPressure
High79 °F (Sep 8, 2:50 PM)100% (Sep 2, 4:50 AM)30.18 "Hg (Sep 2, 4:50 AM)
Low46 °F (Sep 15, 6:50 AM)45% (Sep 8, 2:50 PM)29.92 "Hg (Sep 6, 2:20 PM)
Average59 °F87%30.03 "Hg
* Reported Sep 1 5:20 AM — Sep 16 5:50 AM, Wals-Siezenheim, Weather by CustomWeather, © 2014

Note: Actual official high and low records may vary slightly from our data, if they occured in-between our weather recording intervals... More about our weather records

Advertising

Wals-Siezenheim weather history for previous 24 hours

 ConditionsComfort  
Time TempWeatherWind HumidityBarometerVisibility
5:50 AM
Sep 16
50 °FFog.1 mph94%30.01 "Hg0 mi
5:20 AM50 °FFog.1 mph94%30.01 "Hg0 mi
4:50 AM50 °FSleet. Overcast.2 mph100%30.01 "Hg0 mi
4:20 AM50 °FFog.2 mph100%30.01 "Hg0 mi
3:50 AM50 °FFog.2 mph100%30.01 "Hg0 mi
3:20 AM50 °FSnow. Overcast.1 mph100%30.01 "Hg1 mi
2:50 AM50 °FCool.1 mph100%30.01 "Hg5 mi
2:20 AM50 °FSnow. Overcast.1 mph100%30.01 "Hg6 mi
1:50 AM50 °FSnow. Overcast.1 mph100%30.01 "Hg1 mi
1:20 AM50 °FSleet. Overcast.1 mph100%30.01 "Hg1 mi
12:50 AM52 °FCool.2 mph100%30.01 "HgN/A
12:20 AM52 °FPassing clouds.3 mph100%30.01 "HgN/A
11:50 PM
Sep 15
52 °FPassing clouds.1 mph94%30.01 "HgN/A
11:20 PM54 °FFog.3 mph94%30.01 "HgN/A
10:50 PM55 °FFog.2 mph94%30.04 "Hg5 mi
10:20 PM55 °FFog.2 mph94%30.04 "HgN/A
9:50 PM55 °FFog.3 mph100%30.04 "HgN/A
9:20 PM57 °FClear.3 mph94%30.04 "Hg10 mi
8:50 PM57 °FPassing clouds.2 mph100%30.04 "HgN/A
8:20 PM59 °FPassing clouds.3 mph94%30.01 "HgN/A
7:50 PM59 °FPassing clouds.5 mph94%30.01 "HgN/A
7:20 PM63 °FPassing clouds.5 mph77%30.01 "HgN/A
6:50 PM64 °FPassing clouds.6 mph73%30.01 "HgN/A
6:20 PM66 °FPassing clouds.6 mph73%30.01 "HgN/A
5:50 PM66 °FPassing clouds.7 mph73%30.01 "HgN/A
5:20 PM66 °FPassing clouds.9 mph73%30.01 "HgN/A
4:50 PM66 °FPassing clouds.9 mph73%30.01 "HgN/A
4:20 PM68 °FPassing clouds.6 mph69%30.01 "HgN/A
3:50 PM68 °FPassing clouds.7 mph73%30.01 "HgN/A
3:20 PM68 °FScattered clouds.3 mph69%30.01 "HgN/A
2:50 PM68 °FScattered clouds.6 mph69%30.01 "HgN/A
2:20 PM66 °FScattered clouds.7 mph73%30.04 "HgN/A
1:50 PM66 °FScattered clouds.5 mph73%30.04 "HgN/A
1:20 PM66 °FScattered clouds.3 mph73%30.04 "HgN/A
12:50 PM66 °FScattered clouds.6 mph73%30.04 "HgN/A
12:20 PM64 °FScattered clouds.7 mph73%30.04 "HgN/A
11:50 AM64 °FScattered clouds.2 mph73%30.07 "HgN/A
11:20 AM63 °FScattered clouds.2 mph73%30.07 "HgN/A
10:50 AM63 °FScattered clouds.2 mph73%30.04 "HgN/A
10:20 AM61 °FScattered clouds.3 mph77%30.07 "HgN/A
9:50 AM59 °FPassing clouds.7 mph82%30.04 "HgN/A
9:20 AM59 °FPassing clouds.6 mph82%30.04 "HgN/A
8:50 AM55 °FPassing clouds.5 mph94%30.04 "HgN/A
8:20 AM54 °FFog.6 mph100%30.04 "HgN/A
7:50 AM52 °FCool.1 mph100%30.04 "HgN/A
7:20 AM46 °FFog.3 mph100%30.04 "Hg0 mi
Weather by CustomWeather, © 2014

See weather overviewHow to use our weather pages